Location: Bessat
(45.8735°N, 1.9924°E)
Time: 08:37:38
(UTC+00:00)

BREEZE-M R/B - Pass Details

Date: 11 May 2021
Orbit: 311 x 4501 km, 49.7° (Epoch: 19 June)

Event Time Altitude Azimuth Distance (km) Brightness Sun altitude
Rises 20:59:43 0° 267° (W) 2,198 6.5 -15.5°
Reaches altitude 10° 21:01:48 10° 276° (W) 1,233 5.3 -15.7°
Maximum altitude 21:04:10 41° 350° (N) 474 3.0 -16.0°
Enters shadow 21:06:27 12° 62° (ENE) 1,207 4.4 -16.3°
